Waarnemingen

Advertentie
Mijn weer
Rotterdam Zestienhoven, Nederland (6344): temperatuur & dauwpunt: 23.04.2017 19:00:00 - 29.04.2017 19:00:00 (CEST)Rotterdam Zestienhoven, Nederland (6344): temperatuur 5cm: 23.04.2017 19:00:00 - 29.04.2017 19:00:00 (CEST)Rotterdam Zestienhoven, Nederland (6344): windsnelheid & windstoten: 23.04.2017 19:00:00 - 29.04.2017 19:00:00 (CEST)Rotterdam Zestienhoven, Nederland (6344): windrichting: 23.04.2017 19:00:00 - 29.04.2017 19:00:00 (CEST)Rotterdam Zestienhoven, Nederland (6344): luchtdruk: 23.04.2017 19:00:00 - 29.04.2017 19:00:00 (CEST)Rotterdam Zestienhoven, Nederland (6344): zicht: 23.04.2017 19:00:00 - 29.04.2017 19:00:00 (CEST)Rotterdam Zestienhoven, Nederland (6344): neerslag: 23.04.2017 19:00:00 - 29.04.2017 19:00:00 (CEST)
Datum & Tijd tt [°C] td [°C] tt 5cm [°C] ff [km/u] ff [kn] fx [km/u] fx [kn] dd ppp [hPa] vv [km] rr [mm]
29.04.2017 19:00:00 11,6 3,1 10,5 13 7 18 10 O 1016,7 10 0,0
29.04.2017 18:00:00 12,8 3,2 15,3 5 3 18 10 ZO 1017,0 10 0,0
29.04.2017 17:00:00 13,2 3,4 15,5 11 6 18 10 ZO 1017,2 10 0,0
29.04.2017 16:00:00 12,7 4,2 15,2 9 5 18 10 - 1017,8 10 0,0
29.04.2017 15:00:00 12,8 3,8 15,1 4 2 11 6 - 1018,0 10 0,0
29.04.2017 14:00:00 11,9 3,7 13,3 5 3 14 8 ZO 1018,1 10 0,0
29.04.2017 13:00:00 11,7 4,7 13,1 5 3 11 6 Z 1018,2 10 0,0
29.04.2017 12:00:00 11,8 3,8 13,5 4 2 11 6 - 1018,3 10 0,0
29.04.2017 11:00:00 11,1 4,1 14,1 5 3 14 8 - 1018,3 10 0,0
29.04.2017 10:00:00 10,6 5,8 13,2 9 5 25 14 Z 1018,2 10 0,0
29.04.2017 09:00:00 9,0 4,9 9,1 9 5 14 8 Z 1018,1 10 0,0
29.04.2017 08:00:00 7,0 5,2 2,2 4 2 14 8 ZZO 1017,9 10 0,0
29.04.2017 07:00:00 3,0 3,0 -1,9 4 2 4 2 Z 1017,8 10 0,0
29.04.2017 06:00:00 1,2 1,1 -2,2 4 2 4 2 - 1017,7 10 0,0
29.04.2017 05:00:00 2,0 1,9 -2,0 4 2 4 2 ZO 1017,8 10 0,0
29.04.2017 04:00:00 2,3 2,2 -1,4 2 1 4 2 Z 1017,6 10 0,0
29.04.2017 03:00:00 3,1 2,6 -1,3 4 2 7 4 ZZW 1017,6 10 0,0
29.04.2017 02:00:00 3,1 2,2 -0,8 4 2 7 4 ZW 1017,6 10 0,0
29.04.2017 01:00:00 3,2 1,9 0,6 5 3 11 6 WZW 1017,5 10 0,0
29.04.2017 00:00:00 3,3 1,4 -0,1 5 3 7 4 WZW 1017,4 10 0,0
28.04.2017 23:00:00 3,5 1,4 0,3 8 4 7 4 W 1017,1 10 0,0
28.04.2017 22:00:00 5,1 2,1 1,0 8 4 14 8 W 1017,0 10 0,0
28.04.2017 21:00:00 6,1 2,4 4,6 9 5 22 12 WNW 1016,7 10 0,0
28.04.2017 20:00:00 9,2 2,5 9,6 11 6 25 14 WNW 1016,2 10 0,0
28.04.2017 19:00:00 8,6 2,5 8,6 13 7 29 16 NW 1016,1 10 0,0
28.04.2017 18:00:00 9,6 2,8 10,9 18 10 32 18 NW 1015,6 10 0,0
28.04.2017 17:00:00 10,0 3,5 11,6 16 9 29 16 WNW 1015,4 10 0,0
28.04.2017 16:00:00 10,0 4,3 12,1 18 10 29 16 WNW 1015,3 10 0,0
28.04.2017 15:00:00 10,8 4,8 12,1 16 9 29 16 NW 1014,9 10 0,0
28.04.2017 14:00:00 10,7 4,4 11,9 18 10 29 16 NW 1014,5 10 0,0
28.04.2017 13:00:00 10,3 4,5 11,2 15 8 25 14 NW 1014,2 10 0,0
28.04.2017 12:00:00 10,8 5,3 11,4 15 8 29 16 NW 1014,3 10 0,0
28.04.2017 11:00:00 10,5 5,2 10,6 13 7 25 14 WNW 1014,1 10 0,0
28.04.2017 10:00:00 8,9 5,2 8,1 9 5 18 10 WNW 1013,8 10 0,0
28.04.2017 09:00:00 8,3 5,4 8,8 5 3 11 6 W 1013,5 10 0,0
28.04.2017 08:00:00 6,9 5,9 6,7 8 4 11 6 W 1013,5 10 0,1
28.04.2017 07:00:00 5,7 5,0 5,2 8 4 11 6 ZZW 1013,4 10 0,0
28.04.2017 06:00:00 6,5 5,6 6,1 5 3 7 4 ZZW 1013,3 10 0,0
28.04.2017 05:00:00 6,5 5,7 6,2 8 4 11 6 Z 1013,6 10 0,0
28.04.2017 04:00:00 6,3 5,5 6,3 4 2 7 4 - 1013,6 10 0,2
28.04.2017 03:00:00 6,3 5,7 6,3 9 5 22 12 N 1014,0 7 2,6
28.04.2017 02:00:00 6,9 5,8 6,5 9 5 14 8 ZW 1014,2 10 0,0
28.04.2017 01:00:00 7,0 5,8 6,8 13 7 22 12 W 1014,6 7 0,3
28.04.2017 00:00:00 7,2 4,2 6,4 11 6 18 10 WZW 1014,9 10 0,0
27.04.2017 23:00:00 7,0 3,2 5,3 11 6 18 10 WZW 1015,4 10 0,0
27.04.2017 22:00:00 7,0 2,3 6,2 11 6 22 12 WZW 1015,7 10 0,0
27.04.2017 21:00:00 7,2 2,6 6,6 9 5 22 12 WZW 1016,0 10 0,0
27.04.2017 20:00:00 7,3 2,5 6,8 18 10 29 16 W 1016,0 10 0,0
27.04.2017 19:00:00 8,1 2,1 8,6 18 10 29 16 W 1016,1 10 0,0
27.04.2017 18:00:00 8,7 1,1 10,4 18 10 32 18 W 1016,1 10 0,0
27.04.2017 17:00:00 9,4 1,1 11,3 21 11 32 18 W 1016,5 10 0,0
27.04.2017 16:00:00 9,8 0,7 13,0 21 11 32 18 WNW 1016,7 10 0,0
27.04.2017 15:00:00 9,2 2,3 11,2 16 9 32 18 W 1016,9 10 0,0
27.04.2017 14:00:00 9,3 4,2 10,4 22 12 36 19 WNW 1017,1 10 0,0
27.04.2017 13:00:00 10,1 3,0 12,4 16 9 36 19 WNW 1017,0 10 0,0
27.04.2017 12:00:00 8,9 3,8 8,4 15 8 25 14 WZW 1017,4 10 0,0
27.04.2017 11:00:00 8,1 3,1 9,7 5 3 14 8 N 1017,4 10 0,0
27.04.2017 10:00:00 7,4 2,8 9,2 8 4 14 8 - 1017,3 10 0,0
27.04.2017 09:00:00 6,3 4,1 5,2 4 2 14 8 - 1017,2 10 0,0
27.04.2017 08:00:00 3,1 2,1 2,3 5 3 14 8 ZO 1017,2 10 0,0
27.04.2017 07:00:00 2,8 1,8 1,8 5 3 11 6 WZW 1017,0 10 0,1
27.04.2017 06:00:00 2,8 1,6 0,8 4 2 14 8 - 1016,7 10 0,1
27.04.2017 05:00:00 1,2 0,7 -1,0 4 2 7 4 - 1016,7 10 0,0
27.04.2017 04:00:00 1,7 0,8 -0,2 2 1 18 10 - 1016,7 10 0,0
27.04.2017 03:00:00 2,0 0,7 -0,1 4 2 7 4 WZW 1016,7 10 0,0
27.04.2017 02:00:00 3,9 1,2 2,1 26 14 40 21 NO 1016,9 6 0,7
27.04.2017 01:00:00 3,2 1,4 -1,3 2 1 7 4 N 1017,0 10 0,0
27.04.2017 00:00:00 2,5 1,5 -1,0 4 2 7 4 NW 1016,8 10 0,0
26.04.2017 23:00:00 3,1 0,7 -0,6 5 3 7 4 N 1016,7 10 0,0
26.04.2017 22:00:00 5,6 0,8 1,4 8 4 18 10 NNO 1016,2 10 0,0
26.04.2017 21:00:00 6,3 0,9 4,9 13 7 25 14 N 1015,7 10 0,0
26.04.2017 20:00:00 7,3 1,5 6,8 16 9 36 19 N 1015,2 10 0,0
26.04.2017 19:00:00 8,5 1,8 9,0 26 14 40 21 N 1014,8 10 0,0
26.04.2017 18:00:00 9,4 2,7 9,7 21 11 32 18 N 1014,6 10 0,0
26.04.2017 17:00:00 9,5 1,9 11,6 16 9 29 16 NNW 1014,4 10 0,0
26.04.2017 16:00:00 10,3 1,6 9,5 13 7 36 19 NNW 1014,2 10 0,0
26.04.2017 15:00:00 10,9 2,5 14,2 16 9 29 16 NNW 1014,0 10 0,0
26.04.2017 14:00:00 8,7 2,5 9,9 18 10 32 18 NNW 1013,9 10 0,0
26.04.2017 13:00:00 9,9 2,6 10,8 11 6 25 14 N 1013,4 10 0,0
26.04.2017 12:00:00 8,1 3,0 8,9 2 1 40 21 - 1013,5 10 1,0
26.04.2017 11:00:00 7,0 2,5 10,4 4 2 40 21 - 1013,4 10 0,0
26.04.2017 10:00:00 7,8 3,1 10,4 5 3 14 8 ZO 1012,6 10 0,0
26.04.2017 09:00:00 5,2 2,9 5,6 13 7 18 10 ONO 1012,5 10 0,0
26.04.2017 08:00:00 4,6 3,4 2,9 2 1 4 2 - 1011,9 10 0,0
26.04.2017 07:00:00 2,1 1,6 0,7 5 3 7 4 WZW 1011,6 10 0,0
26.04.2017 06:00:00 2,6 2,2 0,1 5 3 7 4 ZW 1011,0 10 0,0
26.04.2017 05:00:00 3,2 2,3 0,9 2 1 11 6 - 1011,4 8 0,2
26.04.2017 04:00:00 3,1 2,6 2,0 4 2 7 4 WZW 1011,0 10 0,0
26.04.2017 03:00:00 3,4 2,5 2,9 5 3 32 18 WNW 1010,7 10 0,5
26.04.2017 02:00:00 4,5 2,8 4,2 13 7 32 18 WNW 1010,6 6 0,4
26.04.2017 01:00:00 4,6 3,3 4,1 11 6 25 14 W 1010,4 10 0,4
26.04.2017 00:00:00 4,2 1,4 1,9 11 6 18 10 W 1010,5 10 0,0
25.04.2017 23:00:00 4,4 1,5 2,5 11 6 22 12 W 1010,7 10 0,0
25.04.2017 22:00:00 4,9 1,3 3,0 11 6 22 12 W 1010,8 10 0,0
25.04.2017 21:00:00 5,2 1,2 3,7 11 6 25 14 W 1010,6 10 0,0
25.04.2017 20:00:00 7,0 1,3 6,9 13 7 40 21 W 1010,7 10 0,0
25.04.2017 19:00:00 7,9 1,5 9,0 21 11 43 23 WNW 1010,9 10 0,0
25.04.2017 18:00:00 8,0 2,8 8,8 28 15 47 25 WNW 1011,2 10 0,0
25.04.2017 17:00:00 8,7 2,2 11,1 26 14 50 27 WNW 1011,0 10 0,0
25.04.2017 16:00:00 6,5 1,1 8,4 28 15 50 27 NW 1011,5 10 0,0
25.04.2017 15:00:00 9,2 0,1 11,2 28 15 43 23 WNW 1010,9 10 0,0
25.04.2017 14:00:00 9,3 1,6 11,7 26 14 40 21 WNW 1010,7 10 0,0
25.04.2017 13:00:00 8,2 1,4 10,5 24 13 50 27 NW 1010,4 10 0,1
25.04.2017 12:00:00 8,0 2,0 10,0 28 15 43 23 NNW 1009,8 10 0,0
25.04.2017 11:00:00 6,8 2,2 7,6 22 12 40 21 NW 1009,0 10 0,0
25.04.2017 10:00:00 6,9 2,8 6,9 28 15 47 25 NW 1008,3 10 0,2
25.04.2017 09:00:00 4,8 2,8 4,8 22 12 43 23 W 1007,5 10 0,3
25.04.2017 08:00:00 3,8 2,0 3,3 24 13 47 25 W 1007,2 4,4 1,2
25.04.2017 07:00:00 5,1 0,8 4,1 22 12 36 19 W 1006,7 10 0,0
25.04.2017 06:00:00 4,6 -0,4 2,5 15 8 29 16 W 1006,6 10 0,0
25.04.2017 05:00:00 5,1 2,4 4,2 18 10 40 21 WNW 1006,9 10 0,0
25.04.2017 04:00:00 5,9 1,7 4,7 16 9 40 21 WNW 1006,7 10 0,0
25.04.2017 03:00:00 6,6 2,9 5,1 18 10 40 21 W 1006,7 10 0,0
25.04.2017 02:00:00 6,5 4,2 6,1 15 8 36 19 W 1007,0 10 0,3
25.04.2017 01:00:00 6,6 4,3 6,0 11 6 22 12 WZW 1007,4 10 0,0
25.04.2017 00:00:00 6,7 4,8 6,3 9 5 25 14 WZW 1007,9 10 0,6
24.04.2017 23:00:00 8,0 5,1 7,3 11 6 18 10 WNW 1008,7 10 0,5
24.04.2017 22:00:00 8,0 7,4 8,0 9 5 29 16 WNW 1008,9 9 2,7
24.04.2017 21:00:00 10,1 7,4 9,6 5 3 29 16 W 1008,9 10 0,0
24.04.2017 20:00:00 10,5 7,3 10,0 15 8 36 19 WZW 1009,5 10 0,0
24.04.2017 19:00:00 11,3 6,7 10,9 18 10 32 18 W 1010,2 10 0,0
24.04.2017 18:00:00 12,0 7,2 12,2 18 10 32 18 W 1010,7 10 0,0
24.04.2017 17:00:00 11,8 6,4 12,5 22 12 36 19 WZW 1011,5 10 0,0
24.04.2017 16:00:00 12,5 6,5 13,5 22 12 36 19 W 1012,4 10 0,0
24.04.2017 15:00:00 12,4 6,6 13,6 24 13 40 21 W 1013,3 10 0,0
24.04.2017 14:00:00 13,0 5,9 14,0 24 13 40 21 W 1013,8 10 0,0
24.04.2017 13:00:00 12,8 7,3 13,4 22 12 36 19 WZW 1014,4 10 0,0
24.04.2017 12:00:00 12,5 6,7 13,9 26 14 40 21 WZW 1015,2 10 0,0
24.04.2017 11:00:00 12,7 7,7 14,1 24 13 36 19 WZW 1015,4 10 0,0
24.04.2017 10:00:00 11,7 7,2 12,7 24 13 40 21 WZW 1015,8 10 0,0
24.04.2017 09:00:00 10,5 5,9 10,9 22 12 36 19 ZW 1016,1 10 0,0
24.04.2017 08:00:00 8,7 3,6 8,2 26 14 40 21 ZW 1016,7 10 0,0
24.04.2017 07:00:00 7,8 2,6 6,1 21 11 32 18 ZZW 1017,0 10 0,0
24.04.2017 06:00:00 7,1 2,5 5,4 21 11 29 16 ZZW 1017,6 10 0,0
24.04.2017 05:00:00 6,8 2,8 5,6 21 11 29 16 ZZW 1018,5 10 0,0
24.04.2017 04:00:00 7,2 3,0 5,7 16 9 29 16 Z 1019,4 10 0,0
24.04.2017 03:00:00 7,5 3,1 6,2 16 9 25 14 Z 1020,3 10 0,0
24.04.2017 02:00:00 7,5 3,2 5,5 16 9 22 12 Z 1021,3 10 0,0
24.04.2017 01:00:00 6,0 2,8 0,6 11 6 18 10 Z 1022,2 10 0,0
24.04.2017 00:00:00 4,0 1,6 -0,9 9 5 14 8 Z 1023,1 10 0,0
23.04.2017 23:00:00 5,4 1,9 -0,8 9 5 14 8 ZZW 1023,8 10 0,0
23.04.2017 22:00:00 4,9 2,6 0,5 4 2 7 4 - 1024,3 10 0,0
23.04.2017 21:00:00 6,8 3,4 3,2 2 1 11 6 W 1024,4 10 0,0
23.04.2017 20:00:00 9,3 3,1 9,6 5 3 14 8 W 1024,8 10 0,0
23.04.2017 19:00:00 10,2 2,2 12,6 11 6 22 12 W 1025,1 10 0,0

tt = temperatuur
td = dauwpunt
tt 5cm = temperatuur 5cm
ff = windsnelheid
fx = windstoten
dd = windrichting
ppp = luchtdruk
vv = zicht
rr = neerslag

Weerstations in de omgeving